Theta_e
307 307 307 307 307 307 307 307 307 307 307 307 307 307 308 308 312 320 322 318 318 314 315 318 319 320 322 326 326 328 331 331 332 333 335 339 339 341 342 340 337 337 338 337 341
307 306 306 306 306 307 307 307 307 307 307 307 307 308 308 309 318 322 321 317 315 316 319 320 324 323 327 327 327 328 330 330 329 332 333 338 339 341 341 342 341 341 339 340 342
306 306 306 306 306 307 306 307 306 307 306 307 307 308 308 310 325 324 322 316 316 317 319 320 322 325 327 326 326 327 329 328 328 329 332 336 339 339 340 341 340 340 339 340 341
306 306 306 306 306 306 306 306 306 306 306 307 307 308 309 320 323 322 321 315 318 318 319 321 323 326 329 327 325 326 327 327 328 330 333 337 338 338 339 340 339 339 338 339 341
306 306 306 306 306 306 306 306 306 306 306 307 307 307 314 320 322 322 319 316 318 319 321 323 325 328 329 328 326 327 329 331 333 330 335 337 338 338 336 337 337 339 339 340 342
306 306 306 306 306 306 306 306 306 306 307 307 307 307 315 321 319 324 317 318 320 320 321 323 327 326 328 328 328 329 334 337 336 337 337 339 338 338 338 339 340 341 342 342 345
306 306 306 307 307 307 306 306 306 306 307 307 307 311 315 321 319 322 317 316 318 320 322 322 324 326 327 329 328 329 334 336 338 338 338 337 339 341 339 341 343 343 343 344 342
306 307 306 307 307 307 307 307 306 306 307 307 307 316 320 318 319 320 323 319 316 318 319 320 321 325 327 328 331 332 332 332 337 337 337 337 345 342 342 343 345 344 344 345 343
307 307 307 307 307 307 307 307 307 307 307 308 317 318 324 320 322 323 323 324 321 321 320 319 323 328 329 331 331 331 331 331 336 336 337 338 343 342 342 342 343 344 346 346 345
307 307 307 307 307 307 307 307 308 307 312 316 317 323 323 324 323 322 323 323 324 323 324 326 329 330 330 330 331 331 331 334 336 337 339 341 341 340 341 340 341 344 344 345 346
307 307 307 307 307 307 309 311 317 322 317 321 322 322 322 322 322 323 323 324 325 327 330 329 330 330 330 330 330 330 332 338 338 335 339 339 338 340 341 340 340 342 346 346 345
308 308 307 307 307 307 307 314 314 314 320 318 318 318 319 320 324 325 323 327 329 328 328 329 330 330 330 330 329 330 333 337 336 335 337 336 337 339 342 343 343 344 345 344 347
308 308 307 307 307 308 312 314 312 313 321 322 321 323 324 323 326 326 326 328 328 328 328 329 329 327 330 331 331 331 331 336 336 335 335 335 336 337 340 342 344 344 344 345 346
309 308 307 307 309 311 315 313 312 314 326 325 325 325 323 324 326 324 325 327 328 328 328 331 328 329 331 330 331 331 332 334 334 336 337 334 339 337 338 342 341 342 343 344 344
309 309 308 307 313 314 314 312 311 317 326 325 325 324 324 325 326 325 323 327 328 327 329 331 330 330 331 332 332 335 332 333 334 336 337 336 337 337 337 340 340 340 340 339 336
310 309 308 308 311 313 312 313 314 329 325 325 325 324 324 325 325 325 325 327 329 330 331 331 332 334 333 332 332 333 335 335 335 336 338 338 336 337 337 339 339 338 337 336 334
310 309 308 309 314 312 313 319 326 327 327 325 324 324 324 324 325 326 326 326 328 333 333 333 333 334 333 332 332 333 336 337 337 337 335 336 335 341 338 337 339 337 336 335 332
310 308 310 310 312 314 318 327 327 327 326 326 323 323 324 324 325 325 326 326 327 331 332 331 334 334 334 336 334 334 334 335 335 334 335 335 336 341 337 337 336 335 335 334 332
310 313 314 315 311 314 325 325 328 329 329 327 323 324 324 324 325 326 326 326 328 331 331 331 334 334 334 335 335 336 336 336 335 335 335 334 338 336 336 337 335 334 334 333 331
318 317 316 316 312 314 326 322 327 326 327 328 324 324 325 324 325 325 326 326 326 330 337 338 334 334 335 334 335 336 334 335 336 335 333 334 334 338 339 338 336 335 334 333 330
320 319 319 314 317 324 326 323 324 327 327 329 325 325 325 325 325 325 325 328 331 332 336 336 336 337 335 336 336 335 335 335 336 335 332 333 337 336 337 337 336 335 333 333 330
321 319 316 318 327 325 325 324 320 326 326 328 329 328 326 326 325 325 325 330 334 334 334 340 336 334 337 336 335 335 335 335 335 337 335 334 337 335 337 337 335 334 333 331 329
320 324 317 322 325 325 325 324 324 324 328 330 332 332 334 330 328 328 333 335 335 337 339 341 341 336 339 338 337 336 336 336 337 338 336 331 339 336 336 336 335 334 331 330 328
322 321 320 324 326 327 325 322 323 326 326 328 332 334 336 334 336 334 334 335 335 336 331 340 342 334 332 331 330 334 336 335 337 337 334 334 334 339 338 337 335 334 331 329 328
328 327 326 325 325 325 326 324 324 328 326 327 335 335 335 336 334 335 336 336 334 332 335 342 338 335 333 333 333 333 334 334 334 334 336 336 335 337 338 337 335 334 331 329 328
328 328 327 328 329 325 323 326 326 327 328 330 336 334 336 338 334 337 336 336 336 338 338 343 341 337 336 336 334 334 335 333 335 335 336 335 337 336 336 335 334 333 331 329 327
320 323 330 325 329 325 325 326 328 332 329 329 337 338 340 340 337 336 337 340 338 338 342 342 343 341 335 336 334 333 333 334 335 335 337 337 337 336 336 335 334 332 330 328 326
Wind_Speed
8 9 10 10 10 11 11 14 14 14 17 18 19 20 23 27 25 5 2 1 3 9 6 8 10 9 8 4 4 4 5 7 7 6 10 6 5 3 2 3 3 4 7 9 17
9 10 10 11 11 11 12 14 14 15 16 17 19 19 22 28 12 4 2 2 6 11 8 12 11 9 6 3 3 7 4 9 6 6 7 4 1 7 4 4 5 7 8 15 17
10 11 11 12 12 11 13 13 14 15 16 17 19 19 24 19 8 4 4 3 10 10 4 6 4 8 8 4 2 1 5 7 4 7 5 2 2 3 1 1 7 5 11 15 15
11 11 12 12 12 12 13 12 14 14 15 16 18 19 22 4 1 2 4 4 13 9 6 6 6 8 7 4 1 7 3 6 5 5 3 1 4 3 5 8 6 6 14 14 12
11 13 13 13 12 13 13 11 13 13 15 15 16 18 10 6 2 4 0 4 8 9 9 6 7 4 7 2 3 4 5 4 2 2 3 3 7 7 14 10 2 10 12 12 10
12 12 14 13 13 13 12 11 12 12 14 14 15 14 6 3 2 2 4 7 7 9 7 5 2 5 5 3 5 3 7 8 6 5 5 4 9 10 14 6 8 10 12 11 10
11 13 13 12 12 13 11 10 11 12 14 13 13 8 5 4 2 1 5 4 8 7 7 4 3 5 1 4 0 6 8 11 7 5 7 1 16 13 8 10 13 13 12 13 11
11 12 12 11 11 11 10 10 10 12 13 12 11 3 4 2 4 7 7 6 6 7 4 4 5 6 6 1 6 7 4 11 12 4 4 5 17 15 10 11 13 11 11 11 10
12 11 10 9 9 9 8 9 9 12 13 8 3 3 2 4 3 1 9 4 8 7 7 3 6 4 6 12 10 4 9 7 10 10 4 8 12 10 7 11 12 11 11 9 11
15 10 8 7 7 6 7 9 10 8 4 2 5 5 4 2 2 2 6 7 5 9 7 7 6 9 7 7 6 5 6 6 7 8 16 18 16 12 8 11 13 14 9 9 10
15 9 6 6 5 5 4 3 5 5 6 4 3 5 3 9 3 7 8 10 8 10 6 5 8 8 7 7 6 3 4 11 10 4 13 14 16 12 11 12 12 12 12 11 12
14 9 5 5 4 4 3 4 3 4 2 7 10 7 10 5 4 6 8 7 10 7 6 8 8 5 7 7 6 5 7 9 7 10 12 14 17 14 14 14 12 13 13 12 13
13 8 4 3 3 3 4 1 4 5 4 3 4 4 0 6 4 7 6 4 6 6 3 5 8 5 9 8 7 4 7 9 11 8 12 15 14 12 14 14 14 13 12 12 12
13 6 3 2 1 2 4 3 9 6 5 8 7 5 5 4 6 1 2 3 5 4 4 6 3 10 10 7 9 6 3 5 14 16 9 6 6 9 11 13 12 11 12 11 11
11 5 4 7 2 3 1 5 2 4 5 9 7 3 4 9 9 4 2 4 5 5 5 4 12 7 7 6 6 7 2 10 14 7 8 6 3 9 7 9 10 10 12 11 12
10 4 5 4 4 3 4 2 4 5 3 8 7 9 12 9 7 6 3 4 2 6 10 10 5 6 6 5 4 4 7 8 8 7 9 4 6 7 6 5 8 9 10 9 11
9 3 9 6 1 2 1 3 5 4 4 8 12 12 14 11 10 11 10 9 6 11 13 12 8 6 3 5 7 5 6 6 5 6 5 4 6 9 8 6 5 6 8 8 7
8 2 5 8 3 3 4 5 4 3 3 2 7 13 10 11 14 9 10 9 2 11 11 9 11 2 3 5 6 3 5 6 9 6 5 4 0 8 7 6 6 7 6 6 6
5 1 3 2 11 3 6 6 1 3 2 2 10 15 8 9 9 12 12 9 5 7 6 5 6 6 7 7 3 3 3 4 6 4 7 5 6 7 9 8 6 6 5 6 6
2 3 3 3 10 5 6 1 2 1 2 3 13 10 12 13 12 13 12 4 6 1 4 3 5 2 4 3 7 5 3 5 4 4 5 5 5 7 12 12 8 6 5 5 3
3 3 3 4 8 5 8 5 1 1 3 5 8 7 9 10 12 12 10 6 3 6 1 7 3 7 5 2 6 2 3 1 4 4 6 4 7 6 7 10 8 5 4 5 1
3 4 4 5 6 5 9 4 2 3 1 4 4 3 10 7 7 7 8 2 3 8 8 2 1 2 6 4 3 3 4 3 6 3 2 5 4 5 7 10 6 5 5 5 3
2 2 5 3 6 8 5 6 3 4 2 3 6 2 3 5 5 4 5 3 4 5 7 7 2 4 8 7 4 3 2 1 1 3 2 8 6 6 9 9 7 6 7 5 1
3 4 4 5 3 6 9 8 5 3 3 3 3 4 7 6 1 7 7 3 3 3 4 2 2 3 6 5 3 3 4 2 4 7 7 2 3 11 10 9 8 7 7 3 3
2 1 2 8 8 7 6 2 6 3 4 3 5 7 8 5 7 7 7 10 6 6 2 1 3 2 3 3 2 1 2 3 7 6 6 8 4 7 9 9 9 8 6 3 4
2 3 4 3 4 8 5 7 5 1 2 3 5 8 6 8 5 12 10 10 8 6 4 1 4 6 4 3 4 4 1 1 1 1 2 4 3 3 7 10 9 8 6 2 5
3 1 4 5 6 8 6 4 2 3 2 1 3 7 8 5 4 8 4 5 7 10 6 4 6 5 3 3 5 8 2 0 2 0 4 6 7 5 9 9 9 7 4 3 4
Wind_Direction
299 298 297 304 308 311 319 318 326 332 331 334 336 337 332 325 327 321 265 359 169 164 179 182 197 202 222 245 258 283 250 81 64 19 85 108 103 113 114 115 84 85 54 108 138
298 296 295 299 301 306 311 314 320 327 328 331 331 337 332 327 315 230 302 208 111 162 191 189 193 195 215 225 229 268 288 56 356 340 7 88 58 122 190 139 149 126 103 132 145
297 297 296 296 299 302 305 312 316 322 325 329 328 339 332 329 267 83 321 259 173 171 226 221 219 223 242 249 196 354 327 21 38 337 312 23 155 169 207 18 39 136 136 149 156
300 298 296 298 299 302 301 310 311 317 321 326 327 341 332 293 307 87 308 248 188 196 202 196 213 220 257 260 195 273 7 8 7 352 282 214 83 107 353 39 26 101 140 149 153
303 299 298 297 297 298 295 306 306 312 315 322 328 345 341 253 37 335 219 187 164 181 201 196 213 265 264 311 223 238 25 62 5 214 255 73 63 73 40 348 103 117 135 135 131
305 304 300 295 294 292 291 300 301 307 307 318 327 346 309 236 102 67 142 155 188 190 183 196 332 344 290 269 265 92 68 68 71 97 71 27 70 14 4 31 98 124 112 112 107
308 308 301 294 289 285 287 293 296 301 301 313 324 343 276 331 189 166 162 173 191 189 183 216 275 270 353 185 213 158 150 95 59 65 69 213 56 24 40 83 97 104 114 102 101
320 310 301 295 287 282 283 285 295 295 297 307 318 294 267 220 242 255 211 192 182 217 243 244 244 279 245 114 191 170 231 91 45 8 41 278 57 52 68 91 98 111 118 103 104
331 316 302 294 286 285 286 286 293 288 291 300 316 277 160 290 195 141 178 177 186 219 223 218 238 273 186 207 162 227 75 83 76 31 22 26 72 66 87 102 103 117 109 110 103
343 331 312 295 288 287 291 296 291 288 279 265 261 235 219 79 340 233 191 182 181 160 165 217 221 227 189 243 64 66 120 82 68 50 88 95 89 72 66 73 68 76 95 97 80
347 332 313 297 285 287 308 300 219 186 215 295 22 314 326 325 227 189 186 188 192 217 178 185 249 44 62 50 78 76 89 102 113 99 87 93 85 75 59 50 60 73 84 81 82
344 326 314 295 283 275 285 270 20 3 257 230 263 271 272 272 192 160 172 208 206 132 168 197 91 81 122 132 121 98 115 109 100 109 115 102 84 73 60 59 55 70 72 74 80
336 319 301 278 263 275 252 195 347 250 256 168 238 265 103 207 161 144 210 180 184 158 68 355 68 137 158 167 143 60 351 173 137 149 123 125 98 87 84 79 75 70 77 74 59
333 312 263 218 202 207 209 215 314 213 220 147 193 149 185 233 173 104 207 277 195 104 99 57 123 160 186 91 332 79 10 178 153 179 168 238 131 93 101 90 70 68 60 57 55
332 298 222 199 324 222 102 322 269 230 192 148 147 105 167 212 139 146 20 250 198 120 241 89 141 169 93 43 356 36 202 180 186 233 213 171 267 121 136 99 74 65 63 61 61
333 284 194 217 248 256 300 298 223 223 163 155 159 178 176 184 181 126 166 85 53 125 90 110 109 37 63 72 60 128 122 153 206 214 234 106 283 159 131 104 100 77 69 60 65
343 256 195 191 52 169 329 227 193 240 139 163 179 180 182 174 169 185 169 162 184 161 138 137 102 101 28 147 147 232 223 215 199 228 35 113 253 68 121 126 89 72 72 69 66
354 241 235 215 261 247 218 231 200 97 194 111 202 183 183 166 173 174 176 163 190 246 161 166 157 15 16 9 353 25 324 337 317 335 79 150 190 117 122 131 120 87 83 83 59
358 229 239 243 223 238 244 214 95 117 65 215 183 181 164 171 180 179 194 180 147 178 182 180 105 113 57 42 309 75 313 15 292 182 263 82 117 147 156 154 149 105 102 93 61
306 225 168 269 188 228 234 267 142 164 315 196 192 202 174 169 179 197 186 151 166 226 311 106 131 176 113 235 76 353 73 267 211 296 309 124 258 82 178 177 157 148 127 106 61
249 229 41 151 157 215 217 176 243 117 266 208 208 192 185 162 185 191 180 134 205 149 135 155 272 139 199 7 350 178 185 355 301 322 323 301 86 68 166 166 165 142 122 134 95
276 212 118 149 206 210 216 229 17 313 137 233 253 221 186 173 171 174 179 75 142 170 157 92 30 156 61 78 9 8 24 334 323 87 68 286 78 109 127 126 138 132 139 124 41
259 65 167 296 212 198 188 229 274 287 274 214 201 221 177 158 165 180 144 76 160 174 152 175 137 185 174 163 164 260 92 61 64 272 137 311 88 140 140 143 148 145 136 161 29
241 172 155 220 297 249 193 207 220 210 247 228 156 155 151 159 179 173 152 125 124 104 355 98 118 308 352 37 49 174 197 228 300 291 348 351 11 157 171 173 154 151 171 139 47
223 159 20 189 194 215 205 180 206 225 211 228 166 191 168 156 172 174 149 136 136 142 125 219 143 168 105 127 195 216 278 265 290 343 294 15 328 31 165 169 153 158 172 156 48
293 273 182 159 161 194 170 199 219 249 268 153 201 147 163 173 198 184 171 174 167 164 132 37 139 168 153 164 221 228 183 342 15 18 268 324 114 31 116 134 144 168 173 119 51
25 266 282 145 196 210 178 193 197 344 126 4 115 128 126 91 65 72 99 97 146 153 123 148 147 204 158 197 224 239 107 270 137 241 333 325 45 135 150 155 160 150 149 75 59